[[{"header":{"parameterUnit":"m.s-1","parameterCategory":1,"la1":30.2991,"la2":30.254,"lo1":-89.0895,"lo2":-89.0444,"dy":0.0017,"dx":0.0017,"nx":28,"ny":28,"refTime":"2024-07-23T21:00:00:Z","depth":0,"parameterNumber":2,"parameterNumberName":"U-component_of_WINDS"},"data":[0,0,0,0,0,0,0,0,0,0,0,0,0,0,0,0,0,0,0,0,0,0,0,0,0,0,0,0,0,0,0,0,0,0,0,0,0,0,0,0,0,0,0,0,0,0,0,0,0,0,0,0,0,0,0,0,0,0,2.9254,2.9256,0,2.9444,2.9446,2.9449,2.9453,2.9451,2.9448,2.9446,2.9646,2.9653,2.9661,0,0,0,0,0,0,0,0,0,0,0,0,0,2.89,2.8906,2.9254,2.9256,2.9259,2.9444,2.9447,2.9449,2.9453,2.945,2.9448,2.9445,2.9644,2.9653,2.9662,0,0,0,0,0,0,0,0,0,0,0,0,0,2.9068,2.8909,2.9254,2.9283,2.9288,2.9443,2.9447,2.945,2.9454,2.945,2.9447,2.9444,2.9641,2.9652,2.9663,2.9804,0,0,2.9697,2.9702,0,0,0,0,0,0,0,0,2.9059,2.9081,2.9276,2.9281,2.9287,2.9421,2.9395,2.9569,2.9455,2.9391,2.9446,2.9442,2.9575,2.9591,2.9635,2.9813,2.9822,2.9698,2.9705,2.971,2.9713,0,0,0,0,0,0,0,2.9047,2.9073,2.933,2.9279,2.9286,2.9289,2.9309,2.9428,2.9501,2.9396,2.9397,2.9419,2.9577,2.9624,2.9639,2.9825,2.9698,2.9708,2.9715,2.972,3.0129,3.0133,0,0,0,0,0,0,2.9029,2.9063,2.9323,2.9335,2.9161,2.9298,2.932,2.9382,2.9499,2.9514,2.9422,2.9419,2.9606,2.9626,2.9646,2.982,2.971,2.9721,2.9727,3.0125,3.013,3.0135,0,0,0,0,0,0,2.9021,2.9052,2.9316,2.92,2.9233,2.9308,2.9377,2.9387,2.9434,2.9519,2.9532,2.9456,2.9604,2.9631,2.9764,2.9826,2.9726,2.9736,3.012,3.0127,3.0132,3.0166,0,0,0,0,0,0,2.9011,2.9049,2.9102,2.9201,2.924,2.9429,2.9381,2.9394,2.9453,2.9451,2.9554,2.9568,2.9603,2.9747,2.9776,2.984,2.9745,3.0115,3.0123,3.013,3.016,3.0173,3.0184,0,0,0,0,0,2.8998,2.9105,2.9105,2.9136,2.9307,2.9432,2.9455,2.9492,2.9458,2.9513,2.9567,2.9565,2.9815,2.9761,2.9793,2.9862,3.0111,3.0121,3.013,3.0155,3.017,3.0184,0,0,0,0,0,0,2.9014,2.9119,2.9119,2.9261,2.9338,2.9433,2.9503,2.9507,2.9596,2.959,2.9634,2.9657,2.979,2.984,2.9778,3.0005,2.996,2.9976,2.9968,2.9983,2.9995,2.998,2.9754,0,0,0,0,0,2.9033,2.9125,2.9212,2.9329,2.9367,2.9428,2.9484,2.9506,2.9588,2.9621,2.9685,2.9766,2.9863,2.9926,3.0019,3.0167,3.019,3.023,3.0242,3.0252,3.0265,3.0348,3.0367,3.0165,3.0165,3.0165,0,0,2.9076,2.9144,2.92,2.9334,2.9396,2.9491,2.9456,2.9558,2.963,2.9637,2.9767,2.9817,2.991,3.0051,3.0117,3.0097,3.0326,3.0263,3.027,3.0279,3.0359,3.0378,3.0395,3.0171,3.017,3.0169,0,0,2.9201,2.9261,2.9365,2.9428,2.9521,2.9561,2.9586,2.9681,2.9714,2.9845,2.9852,2.9939,3.0105,3.0171,3.0226,3.0377,3.0379,3.0406,3.0469,3.0549,3.0565,3.0579,3.0633,3.0652,3.042,3.042,3.042,0,2.9242,2.9384,2.9419,2.9521,2.958,2.9589,2.9696,2.9755,2.9876,2.9917,2.9892,3.01,3.0164,3.0321,3.0358,3.0402,3.0433,3.0395,3.0559,3.0574,3.0588,3.064,3.066,3.0422,3.0422,3.0422,3.0422,0,2.943,2.9528,2.9601,2.9715,2.9783,2.9887,2.9939,3.0004,3.0019,3.0062,3.0196,3.0273,3.0382,3.0421,3.0438,3.0581,3.0566,3.055,3.0505,3.0609,3.0659,3.0679,3.0426,3.0425,3.0425,3.0424,0,0,2.9571,2.9702,2.9728,2.978,2.9884,2.9961,3.0066,3.0172,3.0226,3.0309,3.0399,3.0539,3.0525,3.0588,3.0613,3.0683,3.0798,3.0658,3.0661,3.0682,3.0961,3.0972,3.0995,3.0799,3.0803,3.0806,3.0953,0,2.9707,2.9892,2.9926,3.0088,3.018,3.019,3.0282,3.0356,3.0399,3.0485,3.0534,3.0633,3.0606,3.0644,3.0714,3.0769,3.0854,3.0759,3.0885,3.0889,3.0861,3.1021,3.1033,3.1168,3.0973,3.0976,3.0978,0,2.9891,2.9977,3.0147,3.0238,3.0278,3.0359,3.0459,3.054,3.0626,3.0653,3.0722,3.0739,3.0851,3.08,3.0955,3.0889,3.0943,3.0978,3.0984,3.0998,3.094,3.1039,3.1212,3.1232,3.1009,3.1007,3.1005,0,2.9977,3.0135,3.0257,3.0301,3.0411,3.0468,3.0517,3.0598,3.0659,3.0747,3.0787,3.0888,3.0943,3.1021,3.1065,3.1024,3.1217,3.117,3.1243,3.1242,3.1283,3.128,3.1468,3.1318,3.1317,3.1317,3.1316,0,3.0127,3.023,3.0297,3.0372,3.0489,3.0529,3.0644,3.0692,3.0765,3.0851,3.0867,3.0947,3.1,3.1089,3.1125,3.1248,3.1273,3.1299,3.1307,3.1297,3.1294,3.1334,3.1326,3.1322,3.1321,3.132,3.1319,0,3.0243,3.0291,3.0425,3.0517,3.0543,3.0625,3.0705,3.078,3.0823,3.0931,3.0959,3.1028,3.1133,3.1185,3.1316,3.134,3.148,3.1482,3.145,3.1453,3.1524,3.1516,3.1743,3.1775,3.1603,3.1605,3.1606,0,3.0335,3.0415,3.0515,3.0573,3.0622,3.0715,3.0777,3.082,3.0884,3.0987,3.1049,3.1155,3.1242,3.141,3.1473,3.1574,3.1579,3.1651,3.1594,3.1582,3.158,3.1575,3.1584,3.1662,3.1663,3.1665,3.1666,0,3.0493,3.0513,3.0601,3.0698,3.0771,3.0849,3.0927,3.0974,3.1029,3.11,3.1207,3.1274,3.1408,3.1513,3.1618,3.1671,3.1678,3.1683,3.1705,3.1697,3.1675,3.1688,3.1478,3.1678,3.1677,3.1676,3.1675,3.1675,3.0601,3.0672,3.0754,3.0851,3.0913,3.0985,3.1059,3.1111,3.12,3.1311,3.1331,3.1445,3.1529,3.1671,3.1726,3.1817,3.1801,3.1834,3.1842,3.1849,3.1853,3.166,3.1837,3.1836,3.1836,3.1836,3.1836,0,3.0761,3.0813,3.0902,3.1009,3.1086,3.1084,3.117,3.1235,3.1334,3.1411,3.1495,3.1619,3.1721,3.1791,3.1895,3.1955,3.1961,3.1981,3.1977,3.1989,3.1861,3.1831,3.1974,3.1974,3.1974,3.1974,3.1974,3.1974,3.0853,3.0973,3.1003,3.1155,3.1208,3.1318,3.1367,3.1434,3.1495,3.1631,3.1715,3.176,3.1835,3.1944,3.2038,3.2057,3.2095,3.2115,3.2133,3.2012,3.1998,3.1984,3.1956,3.2122,3.2123,3.2253,3.2254,3.2255]},{"header":{"parameterUnit":"m.s-1","parameterCategory":1,"la1":30.2991,"la2":30.254,"lo1":-89.0895,"lo2":-89.0444,"dy":0.0017,"dx":0.0017,"nx":28,"ny":28,"refTime":"2024-07-23T21:00:00:Z","depth":0,"parameterNumber":3,"parameterNumberName":"V-component_of_WINDS"},"data":[0,0,0,0,0,0,0,0,0,0,0,0,0,0,0,0,0,0,0,0,0,0,0,0,0,0,0,0,0,0,0,0,0,0,0,0,0,0,0,0,0,0,0,0,0,0,0,0,0,0,0,0,0,0,0,0,0,0,0.6518,0.6523,0,0.6995,0.7,0.7006,0.7129,0.7126,0.7123,0.712,0.7619,0.7634,0.765,0,0,0,0,0,0,0,0,0,0,0,0,0,0.572,0.5733,0.6517,0.6523,0.6529,0.6994,0.7001,0.7007,0.7129,0.7126,0.7122,0.7119,0.7613,0.7632,0.7652,0,0,0,0,0,0,0,0,0,0,0,0,0,0.6118,0.5738,0.6516,0.6646,0.6662,0.6993,0.7001,0.7009,0.713,0.7126,0.7121,0.7117,0.7607,0.7631,0.7654,0.7893,0,0,0.7728,0.7738,0,0,0,0,0,0,0,0,0.6096,0.6148,0.6621,0.6638,0.6657,0.6998,0.6902,0.7306,0.7131,0.6953,0.712,0.7115,0.7416,0.7456,0.7556,0.7916,0.7937,0.773,0.7745,0.7755,0.7762,0,0,0,0,0,0,0,0.6068,0.6128,0.6707,0.6628,0.665,0.6683,0.6735,0.6979,0.7204,0.6968,0.6978,0.7032,0.7425,0.7532,0.7568,0.7945,0.7729,0.7751,0.7766,0.7775,0.8525,0.8531,0,0,0,0,0,0,0.6017,0.6104,0.6691,0.6721,0.6359,0.6701,0.6759,0.6893,0.7202,0.7244,0.7036,0.7036,0.7493,0.754,0.7586,0.7887,0.7755,0.7777,0.7791,0.852,0.8527,0.8533,0,0,0,0,0,0,0.5999,0.6068,0.6672,0.6415,0.6495,0.6719,0.6869,0.6905,0.7011,0.7253,0.7294,0.7103,0.7491,0.7552,0.7815,0.7906,0.7788,0.781,0.8514,0.8522,0.853,0.8489,0,0,0,0,0,0,0.5975,0.6061,0.6152,0.6416,0.6508,0.6891,0.6874,0.6917,0.7051,0.7057,0.7327,0.7368,0.7493,0.7778,0.7839,0.7937,0.7829,0.8507,0.8517,0.8527,0.8483,0.8495,0.8505,0,0,0,0,0,0.5947,0.6124,0.6156,0.6226,0.6626,0.6896,0.6948,0.7086,0.7058,0.7153,0.7308,0.7359,0.7885,0.7804,0.7873,0.798,0.8502,0.8514,0.8526,0.8479,0.8493,0.8504,0,0,0,0,0,0,0.5868,0.6161,0.62,0.6467,0.6655,0.6916,0.704,0.7096,0.7299,0.7296,0.746,0.752,0.7772,0.7902,0.7807,0.8227,0.8194,0.822,0.8134,0.8149,0.8159,0.8125,0.7849,0,0,0,0,0,0.5881,0.6072,0.6319,0.6531,0.6623,0.6814,0.6937,0.7026,0.7229,0.731,0.7484,0.7682,0.7892,0.8027,0.8233,0.8501,0.8563,0.8608,0.8619,0.8626,0.8649,0.8802,0.8825,0.8573,0.8573,0.8573,0,0,0.5912,0.6095,0.6207,0.652,0.6676,0.6873,0.6881,0.709,0.7239,0.7343,0.7602,0.7735,0.7967,0.8233,0.8359,0.8349,0.8732,0.8642,0.8646,0.8666,0.8817,0.8841,0.8862,0.8582,0.858,0.8579,0,0,0.6069,0.6225,0.642,0.6575,0.681,0.6935,0.6981,0.7234,0.7326,0.7586,0.7669,0.7849,0.8207,0.8368,0.8497,0.8711,0.8767,0.8774,0.8832,0.8978,0.8998,0.9017,0.9096,0.9122,0.8795,0.8795,0.8794,0,0.6079,0.6377,0.6513,0.6718,0.6854,0.6952,0.7152,0.7297,0.7588,0.7681,0.7664,0.8114,0.8277,0.8583,0.8634,0.8734,0.8795,0.8746,0.8983,0.9004,0.9023,0.91,0.9129,0.8794,0.8794,0.8794,0.8794,0,0.6378,0.6583,0.6712,0.6987,0.7138,0.7338,0.7508,0.7644,0.7718,0.7846,0.8111,0.8308,0.8556,0.8635,0.8711,0.8952,0.8939,0.895,0.8921,0.9044,0.912,0.915,0.8793,0.8794,0.8794,0.8794,0,0,0.6505,0.6849,0.6895,0.7021,0.7285,0.7448,0.7653,0.7892,0.8007,0.8203,0.8382,0.868,0.8692,0.8838,0.8933,0.906,0.922,0.9058,0.9066,0.9084,0.95,0.9492,0.9524,0.9256,0.9262,0.9267,0.9482,0,0.6697,0.7065,0.7193,0.7498,0.769,0.7785,0.7964,0.8146,0.827,0.8454,0.8592,0.8802,0.88,0.8889,0.9019,0.9173,0.9307,0.9158,0.9428,0.9436,0.9371,0.9564,0.9557,0.9751,0.9512,0.9517,0.9521,0,0.6973,0.7169,0.7492,0.7732,0.7817,0.7976,0.8205,0.8378,0.8587,0.8668,0.8829,0.8914,0.9134,0.9087,0.9395,0.9291,0.9408,0.9499,0.951,0.9545,0.9489,0.9607,0.9816,0.9846,0.9568,0.9564,0.9561,0,0.7036,0.7381,0.762,0.7724,0.8009,0.8118,0.8242,0.8446,0.8582,0.8782,0.8872,0.9096,0.922,0.9393,0.9537,0.9489,0.9833,0.9797,0.991,0.9906,0.9983,0.9977,1.0216,1.005,1.0049,1.0049,1.0048,0,0.724,0.7436,0.7652,0.7799,0.802,0.8165,0.8381,0.8511,0.8691,0.8867,0.8962,0.9126,0.9303,0.9491,0.9604,0.9843,0.9898,0.9972,1.0001,0.9967,0.9958,1.005,1.0041,1.0057,1.0055,1.0053,1.0052,0,0.7351,0.7503,0.777,0.8015,0.8081,0.8234,0.8446,0.8594,0.8719,0.894,0.9001,0.92,0.9425,0.9583,0.9874,0.9951,1.0209,1.0235,1.0138,1.0153,1.0258,1.0247,1.0569,1.062,1.0414,1.0416,1.0417,0,0.7474,0.7626,0.7886,0.8009,0.8132,0.8329,0.8466,0.8613,0.8753,0.9001,0.912,0.935,0.9543,0.9898,1.0071,1.0293,1.0328,1.0425,1.0363,1.0323,1.0334,1.0325,1.0342,1.0436,1.0437,1.0439,1.044,0,0.7677,0.7743,0.7936,0.8155,0.8316,0.8496,0.8678,0.8774,0.8953,0.9106,0.9335,0.9484,0.9778,1.0007,1.0245,1.0377,1.044,1.0456,1.0495,1.0465,1.0403,1.0441,1.0168,1.045,1.0449,1.0448,1.0448,1.0447,0.7801,0.794,0.8144,0.8356,0.8507,0.8674,0.8825,0.8967,0.916,0.9409,0.9484,0.9723,0.9928,1.0254,1.0388,1.0578,1.0573,1.0628,1.0643,1.0656,1.0656,1.0367,1.0622,1.0622,1.0622,1.0622,1.0622,0,0.8012,0.8146,0.8339,0.8589,0.8755,0.8794,0.8996,0.9134,0.9342,0.9526,0.9712,0.9976,1.0198,1.0385,1.0615,1.0731,1.0766,1.0787,1.0783,1.0813,1.0646,1.0592,1.0755,1.0755,1.0755,1.0755,1.0755,1.0755,0.8141,0.838,0.847,0.8784,0.8919,0.9151,0.9264,0.9419,0.9567,0.9856,1.0039,1.0157,1.0345,1.0588,1.0793,1.0843,1.0925,1.094,1.0997,1.0839,1.0824,1.081,1.0759,1.0956,1.0956,1.1149,1.115,1.1152]}]]